Regional Weather Roundup
Issued by NWS

Home | Current Version | Previous Version | Text Only | Print | Product List | Glossary On
Versions: 1 2 3 4 5 6 7 8 9 10 11 12 13 14 15 16 17 18 19 20 21 22 23 24 25 26 27 28 29 30 31 32 33 34 35 36 37 38 39 40 41 42 43 44 45 46 47 48 49 50
000
ASUS43 KLOT 211908
RWRIL

ILLINOIS REGIONAL WEATHER ROUNDUP
NATIONAL WEATHER SERVICE CHICAGO/ROMEOVILLE IL
200 PM CDT THU JUN 21 2018

NOTE: "FAIR" INDICATES FEW OR NO CLOUDS BELOW 12,000 FEET WITH NO
SIGNIFICANT WEATHER AND/OR OBSTRUCTIONS TO VISIBILITY.

* THESE STATIONS ARE NOT UNDER NWS QUALITY CONTROL. THEY ALSO MAY NOT
  REPORT WEATHER SUCH AS PRECIPITATION OR FOG.

ILZ001-002-007-009-015-016-024-212000-
NORTHWEST ILLINOIS

CITY           SKY/WX    TMP DP  RH WIND       PRES   REMARKS
MOLINE         PTSUNNY   74  67  78 SE8       29.72R
STERLING*      CLOUDY    70  67  90 E13       29.74R
SAVANNA*       CLOUDY    66  66 100 E9        29.75S FOG
$$

ILZ003-004-008-010-011-017-018-212000-
NORTH CENTRAL ILLINOIS

CITY           SKY/WX    TMP DP  RH WIND       PRES   REMARKS
ROCKFORD       RAIN      64  63  96 E13G18    29.77F FOG
FREEPORT*      CLOUDY    64  64  97 NE13G22   29.78S
ROCHELLE*      CLOUDY    67  66  97 E13       29.76R
DE KALB*       CLOUDY    65  64  97 E18G24    29.78R
PERU*          CLOUDY    74  71  89 E10       29.73S
$$

ILZ005-006-012>014-019>023-212000-
NORTHEAST ILLINOIS

CITY           SKY/WX    TMP DP  RH WIND       PRES   REMARKS
CHICAGO-OHARE  LGT RAIN  65  62  90 E15       29.78F FOG
CHICAGO-MIDWAY LGT RAIN  66  65  96 E16       29.77S FOG
AURORA         CLOUDY    67  65  93 NE13      29.76S
LANSING*       LGT RAIN  65  65 100 E8        29.77S
JOLIET*        LGT RAIN  69  69  99 E10       29.75R
WAUKEGAN       LGT RAIN  62  61  96 NE13      29.81R FOG
DUPAGE AIRPORT CLOUDY    65  64  97 E17G26    29.76S FOG
KANKAKEE*      CLOUDY    71  70  98 E5        29.75R
WHEELING       LGT RAIN  65  63  93 E8        29.81S FOG
MORRIS*        CLOUDY    70  68  93 E10       29.73S
ROMEOVILLE*    DRIZZLE   66  65  97 E10G17    29.76R
NORTHERLY ISL    N/A     63  61  93 NE16        N/A
$$

LMZ740>746-212000-
SOUTHERN LAKE MICHIGAN

STATION/POSITION SKY/WX   TEMP    WIND        PRES    VSBY  WAVE
                          AIR SEA DIR/SP/G                  HT/PER
                          (F)     (DEG/KT/KT) (MB)    (MI)  (FT/S)
SOUTHERN BUOY              65 63   60/  4/  4 1009.8R         1/ 4
HARRISON CRIB              63      70/ 20/ 22   N/A
NORTHERLY ISL              63      60/ 14/ 17   N/A
CALUMET HARBOR             64      50/ 12/ 17 1008.0F
BURNS HARBOR               66      70/ 14/ 16 1009.1S
MICHIGAN CITY              65      50/ 12/ 13   N/A
MICHIGAN CITY 6N           66 68   80/ 12/ 16   N/A           2/ 4
ST. JOSEPH                 66 68  350/ 14/ 19 1008.8          1/ 3
$$

ILZ025>027-034>036-040-047-049-050-058-095>099-212000-
WEST-CENTRAL ILLINOIS

CITY           SKY/WX    TMP DP  RH WIND       PRES   REMARKS
QUINCY         MOSUNNY   76  62  62 W14       29.70F
GALESBURG*     LGT RAIN  67  66  96 S6        29.71F
MACOMB*        CLOUDY    71  68  92 NW8       29.73F
JACKSONVILLE*  LGT RAIN  70  67  91 CALM      29.71R
PITTSFIELD*    PTSUNNY   77  65  66 W12G17    29.72R
$$

ILZ028>032-037-038-041>044-048-051>054-059>061-212000-
CENTRAL ILLINOIS

CITY           SKY/WX    TMP DP  RH WIND       PRES   REMARKS
PONTIAC        PTSUNNY   77  74  90 E6        29.73S
BLOOMINGTON    PTSUNNY   79  70  74 S9        29.72S HX  82
DECATUR        TSTM      71  66  84 W20G26    29.73R
PEORIA         TSTM      72  66  81 NW8       29.70R
LACON*         PTSUNNY   79  71  76 N6        29.70S HX  82
LINCOLN*       PTSUNNY   72  69  91 S3        29.71F
SPRINGFIELD    PTSUNNY   80  71  74 CALM      29.70F HX  84
TAYLORVILLE    PTSUNNY   73  72  94 S5        29.72S
$$

ILZ033-039-045-046-055>057-062-063-212000-
EAST-CENTRAL ILLINOIS

CITY           SKY/WX    TMP DP  RH WIND       PRES   REMARKS
CHAMPAIGN      PTSUNNY   80  70  71 VRB3      29.72S HX  83
DANVILLE*      FAIR      76  70  82 CALM      29.71S
RANTOUL*       PTSUNNY   80  72  76 CALM      29.73R HX  84
MATTOON        FAIR      82  72  71 SW7       29.70S HX  87
PARIS*         PTSUNNY   80  73  79 S6        29.72S HX  85
$$

ILZ079-100>102-212000-
SOUTHWEST ILLINOIS

CITY           SKY/WX    TMP DP  RH WIND       PRES   REMARKS
ALTON          PTSUNNY   82  70  65 SW9       29.71F HX  86
BELLEVILLE     MOSUNNY   84  68  57 NW12      29.68S HX  87
CAHOKIA*       SUNNY     82  67  60 W9        29.69F HX  84
SPARTA*        MOSUNNY   77  74  91 SE9       29.72F
$$

ILZ064>066-069>071-074>076-080>082-084>086-088>090-092>094-212000-
SOUTH-CENTRAL ILLINOIS

CITY           SKY/WX    TMP DP  RH WIND       PRES   REMARKS
CARBONDALE     LGT RAIN  69  67  93 S12       29.74F
CAIRO*         PTSUNNY   81  71  71 S10G16    29.74S HX  85
EFFINGHAM*     PTSUNNY   77  65  66 W18G30    29.74R
MARION         PTSUNNY   79  68  69 SW17      29.75S HX  81
MT. VERNON     LGT RAIN  77  72  83 S8        29.73S
CENTRALIA*     TSTM      72  70  92 N6        29.72R
SALEM*         CLOUDY    80  70  73 SW14      29.72S HX  83
METROPOLIS*    PTSUNNY   83  71  68 S10       29.74F HAZE    HX  87
$$

ILZ067-068-072-073-078-083-087-091-212000-
SOUTHEAST ILLINOIS

CITY           SKY/WX    TMP DP  RH WIND       PRES   REMARKS
LAWRENCEVILLE  PTSUNNY   82  69  64 S13       29.71F HX  85
FLORA*         FAIR      84  70  63 SW10      29.72S HX  88
FAIRFIELD*     PTSUNNY   81  71  70 SW6       29.72S HX  85
HARRISBURG*    FAIR      83  73  71 S10       29.73F HX  88
ROBINSON*      PTSUNNY   82  72  72 S5        29.72S HX  87
CARMI*         PTSUNNY   82  73  74 S12G17    29.73R HX  88
$$

ABBREVIATIONS USED IN REMARKS
   TC - TEMPERATURE IN CELSIUS
  WCI - WIND CHILL INDEX
   HX - HEAT INDEX
  VSB - VISIBILITY
$$





USA.gov is the U.S. government's official web portal to all federal, state and local government web resources and services.